Florien, LA

6:30 AM CST on January 20, 2017 (GMT -0600)
Fort Polk

Weather History for KAQV - August, 2013

Change the Weather History Date:

Tuesday, August 20, 2013

  Actual Average (KIER) Record (KIER)
Temperature  
Mean Temperature 78 °F -  
Max Temperature 93 °F 94 °F 104 °F (1948)
Min Temperature 64 °F 72 °F 57 °F (1943)
Cooling Degree Days 14    
Growing Degree Days 28 (Base 50)    
Moisture  
Dew Point 68 °F    
Average Humidity 73    
Maximum Humidity 97    
Minimum Humidity 35    
Precipitation  
Precipitation 0.00 in - - ()
Sea Level Pressure  
Sea Level Pressure 30.01 in    
Wind  
Wind Speed 1 mph (NE)    
Max Wind Speed 7 mph    
Max Gust Speed 18 mph    
Visibility 10 miles    
Events      
Averages and records for this station are not official NWS values.
T = Trace of Precipitation, MM = Missing Value Source: NWS Daily Summary

Daily Weather History Graph

Daily Weather History Graph

Search for Another Location

Airport or City:

Trip Planner

Search our weather history database for the weather conditions in past years. The results will help you decide how hot, cold, wet, or windy it might be!

Date:

Astronomy

Aug. 20, 2013 Rise Set
Actual Time 6:41 AM CDT 7:50 PM CDT
Civil Twilight 6:16 AM CDT 8:15 PM CDT
Nautical Twilight 5:46 AM CDT 8:45 PM CDT
Astronomical Twilight 5:15 AM CDT 9:16 PM CDT
Moon 7:26 PM CDT 6:10 AM CDT
Length of Visible Light 13h 59m
Length of Day
13h 08m
Full, 100% of the Moon is Illuminated
Aug 20
Full
Aug 20
Full
Aug 28
Last Quarter
Sep 5
New
Sep 12
First Quarter

Hourly Weather History & Observations

Time (CDT) Temp. Heat Index Dew Point Humidity Pressure Visibility Wind Dir Wind Speed Gust Speed Precip Events Conditions
12:56 AM 70.0 °F - 66.9 °F 90% 30.00 in 10.0 mi Calm Calm - N/A   Clear
1:56 AM 69.1 °F - 66.9 °F 93% 29.99 in 10.0 mi Calm Calm - N/A   Clear
2:56 AM 66.9 °F - 66.0 °F 97% 29.99 in 8.0 mi Calm Calm - N/A   Clear
3:56 AM 66.9 °F - 64.9 °F 93% 29.98 in 9.0 mi Calm Calm - N/A   Clear
4:56 AM 66.0 °F - 64.9 °F 96% 29.99 in 7.0 mi Calm Calm - N/A   Clear
5:56 AM 66.0 °F - 64.0 °F 93% 30.01 in 9.0 mi Calm Calm - N/A   Clear
6:56 AM 64.9 °F - 64.0 °F 97% 30.02 in 10.0 mi Calm Calm - N/A   Clear
7:56 AM 72.0 °F - 69.1 °F 91% 30.04 in 10.0 mi Calm Calm - N/A   Clear
8:56 AM 78.1 °F - 69.1 °F 74% 30.04 in 10.0 mi NNE 4.6 mph - N/A   Clear
9:56 AM 82.0 °F 85.9 °F 70.0 °F 67% 30.05 in 10.0 mi Calm Calm - N/A   Clear
10:56 AM 84.0 °F 87.8 °F 69.1 °F 61% 30.05 in 10.0 mi Variable 6.9 mph - N/A   Partly Cloudy
11:56 AM 88.0 °F 90.3 °F 66.0 °F 48% 30.04 in 10.0 mi Variable 5.8 mph - N/A   Clear
12:56 PM 90.0 °F 90.6 °F 63.0 °F 40% 30.03 in 10.0 mi ENE 5.8 mph - N/A   Partly Cloudy
1:56 PM 91.9 °F 91.8 °F 61.0 °F 35% 30.01 in 10.0 mi Variable 4.6 mph - N/A   Partly Cloudy
2:56 PM 93.9 °F 95.6 °F 64.0 °F 37% 29.99 in 10.0 mi Variable 5.8 mph - N/A   Mostly Cloudy
3:56 PM 89.1 °F 94.1 °F 70.0 °F 53% 30.00 in 10.0 mi Variable 6.9 mph 18.4 mph N/A   Clear
4:56 PM 88.0 °F 91.4 °F 68.0 °F 51% 29.99 in 10.0 mi Variable 5.8 mph - N/A   Clear
5:56 PM 86.0 °F 90.1 °F 69.1 °F 57% 29.99 in 10.0 mi Variable 3.5 mph - N/A   Clear
6:56 PM 84.0 °F 87.0 °F 68.0 °F 58% 29.99 in 10.0 mi Calm Calm - N/A   Clear
7:56 PM 81.0 °F 84.9 °F 71.1 °F 72% 30.00 in 10.0 mi Calm Calm - N/A   Clear
8:56 PM 78.1 °F - 72.0 °F 81% 30.00 in 10.0 mi Calm Calm - N/A   Clear
9:56 PM 75.9 °F - 72.0 °F 87% 30.02 in 10.0 mi Calm Calm - N/A   Clear
10:56 PM 73.9 °F - 71.1 °F 91% 30.03 in 10.0 mi Calm Calm - N/A   Clear
11:56 PM 73.0 °F - 71.1 °F 93% 30.03 in 10.0 mi Calm Calm - N/A   Clear